Theta_e
315 315 315 315 314 314 315 321 323 320 322 324 324 324 326 325 326 325 324 323 323 323 324 326 327 327 325 316 320 320 321 327 328 319 320 320 321 321 321 325 328 330 330 330 333
315 315 315 314 313 313 311 315 322 323 319 323 324 323 323 325 325 324 322 322 324 323 325 327 324 323 318 319 318 323 323 326 327 318 315 320 321 321 325 325 328 333 332 332 333
314 314 315 315 312 312 312 311 319 322 321 321 323 323 323 324 322 322 321 322 323 323 324 324 326 326 326 322 321 324 326 324 320 318 316 318 321 320 322 326 326 332 332 331 333
314 313 314 314 313 312 312 311 314 320 322 319 323 322 322 322 324 319 320 321 323 322 321 325 324 326 328 321 321 325 326 328 328 319 315 317 315 319 320 321 319 327 331 332 332
314 313 313 313 313 312 312 312 311 319 321 321 321 322 322 322 320 320 320 321 323 323 321 320 325 322 327 325 324 322 323 328 328 320 314 314 316 316 315 314 321 331 331 331 332
315 314 313 311 313 312 311 311 307 316 320 321 319 321 321 323 320 320 321 323 323 322 321 320 325 322 323 325 325 325 326 326 323 316 314 316 319 319 316 316 329 332 331 330 330
314 314 314 312 312 312 311 310 310 315 319 320 319 320 320 319 319 320 321 323 323 322 321 321 319 322 321 323 323 325 328 326 326 317 315 317 318 321 316 323 331 330 328 328 329
312 313 313 312 311 310 312 313 310 313 317 318 319 319 320 319 319 321 321 323 323 322 321 321 321 319 321 320 321 325 324 324 321 316 315 317 321 319 318 315 326 327 327 328 328
312 312 312 312 310 310 312 312 309 311 315 317 318 318 320 319 319 321 320 321 322 322 321 321 320 318 319 320 319 320 324 323 324 316 316 319 321 319 318 319 315 319 324 328 328
311 312 312 312 310 310 311 310 311 312 314 316 316 316 316 318 319 319 321 320 322 321 321 319 317 319 318 319 326 321 322 321 323 320 316 320 319 318 319 318 316 311 314 323 328
312 312 312 311 309 308 310 312 312 312 314 313 314 314 315 317 318 318 320 320 319 319 324 321 323 325 322 319 320 319 321 322 321 319 317 318 320 318 318 316 315 311 310 312 324
311 312 312 311 309 307 311 310 309 309 315 312 314 314 315 318 318 317 319 319 320 322 320 323 326 320 319 320 322 322 325 323 322 320 318 319 319 318 316 315 315 313 311 310 311
311 312 312 310 308 311 311 310 309 311 312 313 313 314 314 315 316 318 318 319 321 322 322 323 321 320 319 321 323 323 323 325 324 320 319 321 322 321 318 317 316 315 315 314 313
311 312 311 309 309 311 311 309 311 309 310 312 313 313 313 313 316 315 318 319 320 323 322 322 318 321 319 321 321 322 321 324 325 323 325 320 327 322 321 320 318 319 318 318 317
311 312 311 308 308 310 310 310 310 307 308 308 311 311 312 313 312 316 318 317 319 321 322 322 321 321 322 320 320 321 320 323 324 324 325 325 326 323 321 322 321 320 320 319 318
311 311 310 308 308 309 310 309 309 309 305 311 312 313 314 313 314 314 317 315 315 317 318 319 320 319 320 318 318 318 321 320 320 324 330 325 326 323 323 322 321 319 318 318 317
311 311 309 307 308 309 310 309 312 312 301 313 313 314 313 315 314 314 317 319 318 321 320 318 319 319 318 320 317 322 323 326 328 327 323 319 323 323 320 319 321 321 319 315 314
310 310 308 307 308 310 310 310 313 300 300 310 312 313 312 312 313 313 315 318 316 315 317 316 317 318 319 321 321 321 322 321 325 324 321 320 327 324 319 320 320 318 316 314 313
309 309 306 308 309 310 310 311 310 301 307 312 312 314 311 312 312 313 313 314 314 315 318 322 321 316 317 319 318 320 323 318 316 301 315 318 317 314 314 316 318 318 315 314 311
309 307 306 308 309 310 309 309 305 304 308 309 311 312 313 313 312 312 313 312 313 313 312 315 319 318 317 317 318 320 318 323 322 320 318 316 316 320 316 317 317 315 313 311 309
307 307 307 309 308 309 310 308 303 306 305 306 305 309 311 313 313 312 313 310 311 312 313 314 316 316 319 321 321 321 322 322 320 316 320 317 316 311 316 316 317 313 309 307 304
302 306 307 307 306 306 306 303 305 305 302 304 304 306 307 310 313 312 312 310 308 312 316 315 315 315 318 316 315 319 320 321 323 322 317 316 317 311 306 308 309 307 305 304 303
303 305 307 305 304 306 302 302 303 304 303 303 304 305 306 307 308 309 313 310 309 314 315 316 318 318 320 317 316 318 320 320 320 314 319 322 319 308 304 306 305 305 305 305 306
303 306 299 301 299 303 303 302 301 302 303 302 303 304 304 307 305 306 308 307 307 310 313 315 314 317 318 319 318 320 321 320 320 321 319 318 317 313 306 306 305 305 305 305 306
296 299 299 302 298 301 301 301 301 300 302 302 303 304 303 299 304 305 306 306 306 309 312 316 318 315 315 315 318 319 321 321 322 320 320 318 318 316 309 305 304 304 305 306 307
296 298 293 298 299 301 302 299 301 301 302 303 302 303 302 301 303 303 305 305 307 310 310 313 316 317 316 315 317 317 320 320 321 321 321 318 315 314 312 306 304 304 303 306 308
296 295 298 299 295 298 297 299 301 301 301 301 301 302 302 302 301 300 301 304 306 308 312 308 311 315 317 314 316 319 317 319 319 319 319 320 318 310 312 310 306 304 304 305 308
Wind_Speed
34 32 30 28 28 26 23 22 24 24 25 25 23 21 18 15 13 9 6 5 8 3 3 5 4 3 4 4 4 2 3 2 2 5 6 3 3 2 1 5 3 3 4 4 29
37 34 32 30 28 28 26 23 23 25 25 25 23 22 20 17 13 10 10 13 8 9 6 6 3 5 3 2 4 2 3 4 5 1 4 2 1 5 4 3 4 3 5 17 30
40 37 34 31 30 27 27 26 23 24 24 25 24 23 21 18 3 8 23 16 13 12 9 3 7 3 3 2 2 2 5 3 2 2 2 4 2 1 8 2 6 7 7 11 20
44 40 37 33 31 28 26 26 26 24 24 25 26 24 23 19 8 4 12 25 18 13 9 6 4 4 4 4 0 2 5 5 5 8 6 4 1 1 3 3 3 9 17 17 13
45 44 41 36 32 30 28 27 26 24 26 25 27 26 24 4 6 4 5 21 18 14 12 5 5 5 5 6 3 2 3 5 5 9 8 4 3 2 3 4 6 15 13 14 16
47 46 42 38 34 30 28 24 26 26 26 27 27 28 12 14 10 5 7 24 21 15 9 8 7 5 4 4 5 6 2 4 6 5 4 4 3 1 2 3 9 13 12 10 16
49 48 45 40 36 32 29 26 25 27 25 27 28 30 9 10 16 13 8 20 22 21 7 11 4 3 4 4 5 3 4 7 8 2 3 2 6 5 4 6 8 8 9 10 15
50 48 48 42 37 33 29 28 24 27 24 25 27 21 4 21 11 16 14 15 17 18 7 6 5 1 2 1 2 5 2 3 6 7 6 6 14 8 8 8 9 9 8 11 14
52 50 48 44 38 35 31 26 24 26 24 23 22 10 5 20 12 21 18 14 19 14 14 2 7 3 1 3 2 3 4 5 6 9 5 8 8 10 8 9 9 9 10 12 11
52 50 50 45 39 36 31 25 22 21 21 18 8 4 5 7 21 16 18 16 8 8 3 2 3 3 1 4 8 5 4 4 7 5 8 9 16 5 5 9 11 11 11 12 13
53 51 51 47 39 37 32 24 11 5 17 12 10 1 7 13 24 14 22 15 4 4 8 4 5 16 17 6 5 6 5 9 4 10 5 15 20 10 12 5 8 9 8 10 15
54 54 52 47 41 39 39 8 19 8 17 1 11 5 7 11 5 10 22 7 6 11 6 4 16 15 6 3 4 4 2 4 4 4 7 8 17 15 7 7 9 10 11 10 7
57 57 54 49 43 40 34 15 22 30 6 5 3 8 5 7 4 13 19 7 9 12 17 15 4 9 10 5 10 9 8 3 5 2 3 2 9 9 7 10 8 10 14 12 14
60 59 55 52 39 35 27 28 30 13 4 7 7 6 4 6 3 7 22 9 4 17 15 13 6 15 8 15 13 15 8 6 6 2 5 5 8 8 9 15 10 15 13 16 15
62 60 58 57 35 26 42 38 32 3 5 8 11 8 9 7 9 6 15 4 9 6 8 8 12 15 17 16 12 8 8 13 7 4 3 4 4 6 5 9 14 17 18 18 17
63 61 60 43 30 35 44 38 12 4 7 8 11 13 14 6 2 5 5 3 3 5 6 7 2 16 11 13 18 9 5 4 3 3 12 11 8 8 11 9 8 12 13 14 13
63 63 56 40 22 45 51 18 6 8 1 9 13 18 19 9 6 6 11 15 10 12 16 8 15 3 6 11 8 10 9 4 7 7 17 10 9 22 7 8 14 14 14 10 10
64 61 45 28 51 49 32 13 9 3 6 2 13 19 15 17 11 5 12 14 18 4 4 13 8 16 7 11 6 19 16 5 7 6 9 3 9 7 12 21 21 14 9 6 8
62 41 33 41 50 48 16 15 5 7 7 11 15 19 11 10 9 8 11 19 17 16 12 7 10 1 10 8 8 8 16 12 3 3 2 6 8 6 8 10 15 15 8 10 9
37 26 20 46 44 33 15 8 2 6 7 13 6 5 12 20 11 17 16 15 11 23 7 5 2 3 7 9 11 15 7 11 4 5 6 5 6 10 3 13 15 7 9 9 8
28 9 19 46 36 13 16 7 4 3 4 5 5 5 6 11 10 19 10 4 23 9 20 3 5 1 3 11 20 6 13 9 6 3 5 3 7 7 18 18 19 9 7 7 8
4 5 28 44 10 6 8 11 7 6 4 4 5 6 6 7 11 15 11 10 11 17 18 15 5 10 14 6 2 14 12 19 10 19 3 1 11 3 8 10 7 7 6 5 6
4 7 16 33 5 9 6 6 4 4 4 3 4 3 3 7 5 6 8 2 8 14 11 13 8 9 3 3 4 7 15 19 19 2 18 12 10 4 5 0 3 8 7 6 4
5 7 3 3 0 17 16 8 5 4 4 5 6 5 5 3 4 6 5 3 1 11 15 9 6 10 13 5 5 13 18 18 23 13 22 19 19 8 6 6 5 6 6 6 5
3 3 1 8 4 12 11 12 8 5 3 4 4 4 7 4 3 5 4 1 2 5 3 6 12 14 14 8 3 11 19 25 24 34 17 26 21 16 12 13 11 11 8 7 7
4 5 3 5 11 16 8 8 14 6 7 5 7 6 5 7 9 7 7 6 5 5 8 6 7 8 16 13 12 12 16 16 26 29 25 27 18 20 12 6 8 9 9 9 8
3 5 6 7 4 7 5 9 13 8 3 9 10 7 8 14 5 3 3 2 2 6 5 4 2 7 19 11 14 14 28 24 24 27 30 27 38 6 10 8 9 12 14 13 9
Wind_Direction
214 214 212 214 220 218 213 214 211 207 203 205 198 198 194 187 189 190 215 211 203 142 170 163 125 68 26 21 335 164 90 172 21 11 305 325 110 14 30 100 62 34 151 215 166
213 210 209 207 213 221 215 212 210 208 201 201 198 193 194 185 184 217 206 212 212 206 171 164 133 99 49 16 336 84 133 215 170 279 293 306 85 149 107 102 36 37 23 140 164
214 210 209 205 207 212 218 211 207 207 203 198 193 192 189 170 103 236 219 204 200 185 164 171 134 79 98 29 304 281 185 58 298 283 306 298 84 270 127 232 198 182 174 145 154
213 212 211 206 206 205 213 212 206 204 202 198 190 187 182 164 198 198 218 206 201 194 181 143 96 94 127 160 269 294 251 150 291 331 338 297 327 74 183 215 207 173 163 157 165
209 209 211 208 206 203 206 209 205 201 198 198 191 182 169 186 243 157 230 195 192 195 188 161 137 140 178 164 128 213 250 220 272 293 256 302 255 236 247 244 97 135 158 171 174
209 208 209 206 203 202 201 207 205 201 196 195 191 182 171 205 214 185 135 180 189 185 187 171 177 181 128 190 173 192 247 239 231 244 261 212 247 330 303 123 127 152 173 184 185
206 202 204 206 202 197 201 201 199 198 196 193 190 183 199 190 201 205 149 177 185 193 178 192 119 156 130 146 245 170 159 266 263 216 253 327 292 233 200 126 153 177 175 185 200
205 203 202 202 202 199 194 190 190 194 196 191 188 177 212 194 168 177 171 170 189 194 200 204 200 91 158 268 89 151 172 204 245 186 231 154 259 232 220 151 191 195 197 195 208
201 199 203 197 196 193 188 187 185 188 189 185 174 177 212 185 195 180 177 164 179 191 210 75 141 165 87 152 87 221 199 183 280 204 166 181 246 226 220 197 210 208 200 208 211
202 197 200 192 191 186 181 174 171 173 172 160 140 134 196 202 186 183 180 183 161 134 63 183 106 138 106 164 203 196 190 194 203 234 216 219 253 251 256 194 216 211 211 209 208
197 194 195 188 189 182 168 146 130 154 177 184 184 147 142 148 174 181 179 163 99 130 183 198 180 206 199 192 205 169 182 213 236 237 192 224 246 235 240 225 235 233 221 217 217
191 188 191 184 186 179 169 180 175 155 170 261 168 205 130 152 133 189 174 148 169 195 142 173 216 205 182 189 223 240 229 244 283 274 180 260 254 247 233 234 214 219 232 224 228
185 184 183 178 182 172 174 170 162 139 142 200 155 178 145 148 160 185 168 153 179 192 192 205 226 163 177 178 216 236 221 228 237 280 207 324 267 253 241 240 238 228 226 227 212
179 178 177 174 165 170 173 166 156 150 101 180 183 225 143 137 205 169 184 154 196 207 191 229 187 178 176 213 197 226 169 215 261 256 233 164 273 245 232 237 221 236 227 230 229
174 171 174 170 163 174 170 163 167 89 142 183 171 173 157 171 142 206 179 88 171 167 180 190 184 188 201 210 191 220 175 205 219 227 316 221 266 261 210 233 238 237 237 237 238
169 168 168 161 160 164 164 167 141 110 228 173 151 167 159 183 196 119 145 76 141 180 203 232 315 193 205 197 195 153 88 57 78 154 251 223 218 224 227 219 238 238 237 234 235
167 168 166 163 159 160 160 147 162 193 309 168 172 167 171 168 170 159 168 186 189 191 215 194 228 272 186 200 187 181 157 205 214 211 240 183 210 247 241 239 227 232 236 232 233
165 163 163 164 152 156 154 156 195 188 195 224 150 159 175 148 197 139 166 196 213 179 168 212 224 199 165 219 200 200 193 178 201 197 248 104 231 240 221 233 244 249 240 234 241
157 154 152 153 156 150 149 183 189 193 161 149 132 158 174 181 159 163 183 206 210 200 200 200 225 250 197 176 175 183 212 205 81 10 67 209 274 292 256 262 258 249 225 241 234
146 143 146 152 151 155 158 145 208 171 124 139 127 164 176 176 164 189 186 201 212 208 201 208 297 236 180 170 230 216 167 200 214 192 231 245 256 233 292 246 250 254 236 249 235
131 133 151 151 153 161 184 151 174 81 98 111 139 111 166 176 179 183 197 237 200 172 199 188 200 292 123 204 194 184 205 212 189 175 222 257 251 215 217 219 237 227 227 224 197
91 112 152 146 152 174 175 143 133 146 87 95 92 95 138 169 190 194 201 197 191 182 195 199 231 228 219 175 211 242 216 201 207 215 223 188 250 209 248 252 222 200 189 202 192
94 104 143 148 145 165 135 142 122 126 128 133 116 137 168 148 149 178 193 319 176 180 186 181 220 232 208 266 206 229 223 207 223 123 223 226 246 329 17 132 176 176 187 199 194
110 131 50 95 91 157 158 167 108 91 105 104 115 88 97 136 45 157 168 266 248 199 210 187 198 226 227 225 147 209 201 222 211 225 235 228 247 235 245 225 213 215 220 202 215
48 86 54 160 175 156 146 156 127 125 90 112 47 147 140 113 118 182 183 256 270 202 151 222 231 215 237 260 313 230 219 215 209 224 218 237 233 223 211 203 205 205 203 209 221
114 131 46 83 123 136 146 179 165 145 135 181 134 162 155 163 183 176 159 189 193 191 176 190 256 219 238 238 228 237 241 234 222 228 231 247 251 221 245 167 193 208 204 217 217
112 88 103 127 91 132 181 152 185 124 44 150 139 148 198 217 189 200 214 215 193 174 162 130 306 251 257 224 235 237 230 220 231 235 219 229 234 141 221 222 202 205 205 210 206